Regional Weather Roundup
Issued by NWS

Home | Current Version | Previous Version | Text Only | Print | Product List | Glossary On
Versions: 1 2 3 4 5 6 7 8 9 10 11 12 13 14 15 16 17 18 19 20 21 22 23 24 25 26 27 28 29 30 31 32 33 34 35 36 37 38 39 40 41 42 43 44 45 46 47 48 49 50
000
ASUS43 KDTX 210010
RWRMI
MICHIGAN HOURLY REGIONAL WEATHER ROUNDUP
NATIONAL WEATHER SERVICE DETROIT/PONTIAC MI
800 PM EDT SUN APR 20 2014

NOTE: "FAIR" INDICATES FEW OR NO CLOUDS BELOW 12,000 FEET WITH NO
SIGNIFICANT WEATHER AND/OR OBSTRUCTION TO VISIBILITY.

MIZ047>049-052>055-059>063-066>070-074>076-081>083-210100-
SOUTHEAST LOWER MICHIGAN

CITY           SKY/WX    TMP DP  RH WIND       PRES   REMARKS
ADRIAN         PTCLDY    68  31  25 W5        30.13F
6HR MIN TEMP:  66; 6HR MAX TEMP:  73;

ALMA           PTCLDY    67  32  27 S6        30.10F
ANN ARBOR      PTCLDY    67  34  29 S6        30.13S
BAD AXE        PTCLDY    62  37  39 NE3       30.11F
6HR MIN TEMP:  61; 6HR MAX TEMP:  71;

DETROIT CITY   CLEAR     69  33  26 S7        30.13F
6HR MIN TEMP:  68; 6HR MAX TEMP:  73;

DETROIT        CLOUDY    64  37  36 S9        30.14F
6HR MIN TEMP:  64; 6HR MAX TEMP:  72;

FLINT          CLEAR     69  23  17 SW7       30.11F
6HR MIN TEMP:  69; 6HR MAX TEMP:  74;

GROSSE ILE     CLEAR     54  43  66 S3        30.12F
HILLSDALE      PTCLDY    68  29  23 SW3       30.13F
HOWELL         PTCLDY    67  19  16 S5        30.12S
6HR MIN TEMP:  67; 6HR MAX TEMP:  72;


CITY           SKY/WX    TMP DP  RH WIND       PRES   REMARKS
JACKSON        PTCLDY    68  26  20 S8        30.12F
6HR MIN TEMP:  68; 6HR MAX TEMP:  72;

LAMBERTVILLE   PTCLDY    61  34  36 E5        30.14F
LANSING        PTCLDY    68  29  23 SW8       30.11F
6HR MIN TEMP:  68; 6HR MAX TEMP:  73;

LAPEER         NOT AVBL
MASON          PTCLDY    68  29  23 CALM      30.11F
MONROE         PTCLDY    55  36  47 SE5       30.13S
MT. CLEMENS    MOCLDY    58  38  47 SE7       30.11F
6HR MIN TEMP:  58; 6HR MAX TEMP:  67;

PONTIAC        CLOUDY    69  23  17 S8        30.12F
6HR MIN TEMP:  65; 6HR MAX TEMP:  71;

PORT HOPE        N/A     52  40  63 CALM      30.09F
6HR MIN TEMP:  49; 6HR MAX TEMP:  64;

PORT HURON     CLEAR     63  37  39 S6        30.13F
TRI CITIES     CLEAR     67  35  30 W6        30.10F
6HR MIN TEMP:  66; 6HR MAX TEMP:  73;

YPSILANTI      PTCLDY    67  35  30 SE9       30.13S
6HR MIN TEMP:  66; 6HR MAX TEMP:  76;

$$
MIZ043>046-050>051-056>058-064>065-071>073-077>080-210100-
SOUTHWEST LOWER MICHIGAN

CITY           SKY/WX    TMP DP  RH WIND       PRES   REMARKS
BATTLE CREEK   PTCLDY    68  30  24 SW8       30.12F
6HR MIN TEMP:  67; 6HR MAX TEMP:  72;

BENTON HARBOR  PTCLDY    68  38  33 W5        30.09F
6HR MIN TEMP:  68; 6HR MAX TEMP:  72;

BIG RAPIDS     MOCLDY    67  37  33 SW6       30.08S
6HR MIN TEMP:  67; 6HR MAX TEMP:  72;

COLDWATER      PTCLDY    66  29  24 S3        30.12F
6HR MIN TEMP:  66; 6HR MAX TEMP:  71;

HOLLAND        CLEAR     66  43  43 W6        30.10F
6HR MIN TEMP:  66; 6HR MAX TEMP:  74;

GRAND RAPIDS   PTCLDY    70  34  26 S6        30.09F
6HR MIN TEMP:  68; 6HR MAX TEMP:  74;

KALAMAZOO      PTCLDY    65  32  29 S7        30.11F
6HR MIN TEMP:  65; 6HR MAX TEMP:  73;

MARSHALL       PTCLDY    68  30  24 SW3       30.11F
MUSKEGON       MOCLDY    66  33  29 S8        30.09F
6HR MIN TEMP:  66; 6HR MAX TEMP:  70;

$$
MIZ016>042-210100-
NORTHERN LOWER MICHIGAN

CITY           SKY/WX    TMP DP  RH WIND       PRES   REMARKS
ALPENA         CLOUDY    45  37  73 SE3       30.07F
6HR MIN TEMP:  44; 6HR MAX TEMP:  54; 6HR PCP: TRACE;

BEAVER ISLAND  DRIZZLE   40  34  78 SW10      30.06S
6HR MIN TEMP:  40; 6HR MAX TEMP:  47;

BELLAIRE       CLOUDY    60  37  43 CALM      30.06R
6HR MIN TEMP:  59; 6HR MAX TEMP:  64;

CADILLAC       CLOUDY    63  39  42 SW7       30.08S
CHARLEVOIX     CLOUDY    42  34  71 CALM      30.10R
6HR MIN TEMP:  41; 6HR MAX TEMP:  56;

FRANKFORT      DRIZZLE   57  37  46 SW8G18    30.06F
GAYLORD        CLOUDY    60  39  45 W7        30.06F
6HR MIN TEMP:  56; 6HR MAX TEMP:  63; 6HR PCP: TRACE;

GRAYLING       CLOUDY    62  38  40 NW3       30.07S
6HR MIN TEMP:  61; 6HR MAX TEMP:  68;

HARBOR SPRINGS CLOUDY    45  37  71 CALM      30.06S
HOUGHTON LAKE  CLOUDY    66  34  30 SW8       30.07F
6HR MIN TEMP:  65; 6HR MAX TEMP:  71;

MANISTEE       CLOUDY    64  36  34 SW7       30.07F
OSCODA         CLOUDY    61  28  28 CALM      30.07F
PELLSTON       CLOUDY    51  45  79 NE5       30.06F
6HR MIN TEMP:  50; 6HR MAX TEMP:  55; 6HR PCP:  0.05;

TRAVERSE CITY  CLOUDY    62  39  42 CALM      30.04F
6HR MIN TEMP:  62; 6HR MAX TEMP:  68; 6HR PCP: TRACE;

$$
MIZ007>008-015-210100-
EASTERN UPPER MICHIGAN

CITY           SKY/WX    TMP DP  RH WIND       PRES   REMARKS
KINROSS        CLOUDY    39  39 100 E3        30.07S VSB 1/2
6HR MIN TEMP:  39; 6HR MAX TEMP:  43; 6HR PCP:  0.04;

MACKINAC ISLAN CLOUDY    38  38  99 SE9       30.06F FOG
6HR MIN TEMP:  37; 6HR MAX TEMP:  46; 6HR PCP:  0.05;

NEWBERRY       CLOUDY    39  36  91 S9        30.04S
S. S. MARIE    CLOUDY    38  36  92 E6        30.07F FOG
6HR MIN TEMP:  37; 6HR MAX TEMP:  39; 6HR PCP:  0.02;

$$
MIZ004>006-011>014-085-210100-
CENTRAL UPPER MICHIGAN

CITY           SKY/WX    TMP DP  RH WIND       PRES   REMARKS
MANISTIQUE     CLOUDY    37  34  90 S9        30.04F
6HR MIN TEMP:  36; 6HR MAX TEMP:  39;

ESCANABA       CLOUDY    39  36  87 S3        30.02F
6HR MIN TEMP:  37; 6HR MAX TEMP:  43;

MENOMINEE      CLOUDY    52  46  82 S7        30.03S
6HR MIN TEMP:  43; 6HR MAX TEMP:  54;

$$
MIZ001>003-009>011-084-210100-
WESTERN UPPER MICHIGAN

CITY           SKY/WX    TMP DP  RH WIND       PRES   REMARKS
IRON MOUNTAIN  CLOUDY    58  50  75 S5        29.98F
6HR MIN TEMP:  58; 6HR MAX TEMP:  65;

HOUGHTON       CLEAR     49  32  52 W6        30.00R
6HR MIN TEMP:  47; 6HR MAX TEMP:  53;

COPPER HARBOR    N/A     40  33  76 CALM      30.00S
6HR MIN TEMP:  38; 6HR MAX TEMP:  42;

IRONWOOD       CLEAR     59  25  27 N6        29.97S
6HR MIN TEMP:  59; 6HR MAX TEMP:  64;

$$

ABBREVIATIONS USED IN REMARKS
   TC - TEMPERATURE IN CELSIUS
  WCI - WIND CHILL INDEX
   HX - HEAT INDEX
  VSB - VISIBILITY




USA.gov is the U.S. government's official web portal to all federal, state and local government web resources and services.